Starlink 2379

operational
NORAD ID: 47798 Int'l Des: 2021-018 Owner: SPXS Country: US Constellation: starlink
LEOCIRCULARSTARLINK_TYPE

About Starlink 2379

Description loading...

Live Position

Loading 3D Globe...

Upcoming Passes

Altitude History

Altitude vs Time

uPlot chart will show altitude changes over time

Two-Line Element Set

1 47798U 21018M 25301.83816220 -.00005154 00000-0 -32730-3 0 9993
2 47798 53.0524 103.5242 0001306 104.2636 255.8498 15.06403575257006
Epoch: Oct 28, 2025 • Age: 35 hours

Current Status

Altitude 548.5 km
Velocity 7.59 km/s
Sub-Earth Point -0.59°S, 49.49°W
Launch Date Mar 11, 2021
Age 4.6 years
Type internet

Technical Details

Classification Payload
Mass 260.00 kg
Dry Mass 248.00 kg
Total Mass 260.00 kg
Length 0.20 m
Diameter 2.80 m
Span 9.00 m
Shape Box + pan
Manufacturer SPXS
Bus Type Starlink
Phase Status In Orbit
Owner/State SPXS/US

Large Constellations

Loading constellations...